MGE185 PKMJ-ANYN

Flight info

Callsign MGE185
Flight time 1h 19m
Altitude 38000
Route MAJ A598 NI
Aircraft A339/H-SADE1E2E3GHIJ3J5M1P2RWXY/LB2D1

Departure

Time 2026-04-30 13:07
Airport Marshall Islands International Airport (PKMJ)

Arrival

Time 2026-04-30 14:27
Airport Nauru International Airport (ANYN)
Time Latitude Longitude Altitude Speed Heading
2026-04-30 12:59 7.06829 171.28104 13 ft 0 kts 114°
2026-04-30 13:01 7.06829 171.28105 11 ft 0 kts 114°
2026-04-30 13:02 7.06828 171.28106 13 ft 1 kts 113°
2026-04-30 13:02 7.06820 171.28132 16 ft 7 kts 107°
2026-04-30 13:02 7.06803 171.28199 13 ft 13 kts 115°
2026-04-30 13:03 7.06745 171.28198 13 ft 8 kts 233°
2026-04-30 13:03 7.06716 171.28120 11 ft 17 kts 247°
2026-04-30 13:03 7.06679 171.27979 9 ft 25 kts 255°
2026-04-30 13:03 7.06625 171.27789 11 ft 31 kts 255°
2026-04-30 13:04 7.06566 171.27565 10 ft 34 kts 255°
2026-04-30 13:04 7.06508 171.27337 10 ft 34 kts 256°
2026-04-30 13:04 7.06458 171.27107 12 ft 33 kts 258°
2026-04-30 13:04 7.06403 171.26880 8 ft 35 kts 255°
2026-04-30 13:05 7.06343 171.26642 7 ft 35 kts 256°
2026-04-30 13:05 7.06285 171.26411 5 ft 29 kts 255°
2026-04-30 13:05 7.06219 171.26228 7 ft 28 kts 242°
2026-04-30 13:06 7.06303 171.26125 8 ft 5 kts 98°
2026-04-30 13:06 7.06286 171.26162 8 ft 7 kts 122°
2026-04-30 13:06 7.06265 171.26205 7 ft 7 kts 105°
2026-04-30 13:06 7.06267 171.26251 7 ft 7 kts 82°
2026-04-30 13:07 7.06316 171.26455 6 ft 71 kts 76°
2026-04-30 13:07 7.06503 171.27198 13 ft 144 kts 76°
2026-04-30 13:07 7.06785 171.28264 554 ft 161 kts 71°
2026-04-30 13:07 7.07213 171.29295 1391 ft 162 kts 64°
2026-04-30 13:08 7.07759 171.30293 2082 ft 168 kts 62°
2026-04-30 13:08 7.08325 171.31383 2493 ft 186 kts 66°
2026-04-30 13:08 7.08579 171.32737 2826 ft 209 kts 92°
2026-04-30 13:08 7.08112 171.34197 3192 ft 234 kts 118°
2026-04-30 13:09 7.06896 171.35402 3495 ft 260 kts 145°
2026-04-30 13:09 7.05139 171.35954 4080 ft 272 kts 173°
2026-04-30 13:09 7.03259 171.35650 4775 ft 281 kts 199°
2026-04-30 13:09 7.01611 171.34547 5338 ft 290 kts 221°
2026-04-30 13:10 7.00197 171.33119 5928 ft 293 kts 223°
2026-04-30 13:10 6.98690 171.31736 6522 ft 294 kts 217°
2026-04-30 13:10 6.97049 171.30516 7115 ft 293 kts 211°
2026-04-30 13:10 6.95322 171.29412 7698 ft 294 kts 208°
2026-04-30 13:11 6.93550 171.28366 8296 ft 295 kts 207°
2026-04-30 13:11 6.91758 171.27329 8815 ft 300 kts 207°
2026-04-30 13:11 6.89931 171.26274 9408 ft 301 kts 207°
2026-04-30 13:11 6.88099 171.25209 9921 ft 306 kts 207°
2026-04-30 13:12 6.86212 171.24110 10141 ft 321 kts 208°
2026-04-30 13:12 6.84227 171.22955 10298 ft 337 kts 207°
2026-04-30 13:12 6.82184 171.21758 10490 ft 349 kts 208°
2026-04-30 13:13 6.77914 171.19241 11332 ft 358 kts 209°
2026-04-30 13:13 6.75761 171.17969 11822 ft 361 kts 207°
2026-04-30 13:13 6.71407 171.15409 12767 ft 367 kts 207°
2026-04-30 13:14 6.69200 171.14120 13327 ft 366 kts 208°
2026-04-30 13:14 6.66977 171.12809 13680 ft 373 kts 208°
2026-04-30 13:14 6.62475 171.10160 14532 ft 377 kts 208°
2026-04-30 13:15 6.60208 171.08831 14973 ft 378 kts 208°
2026-04-30 13:15 6.56414 171.06604 15688 ft 382 kts 208°
2026-04-30 13:15 6.53353 171.04801 16162 ft 387 kts 208°
2026-04-30 13:16 6.51019 171.03433 16621 ft 387 kts 209°
2026-04-30 13:16 6.49479 171.02530 16916 ft 388 kts 208°
2026-04-30 13:16 6.47146 171.01161 17340 ft 389 kts 209°
2026-04-30 13:17 6.42426 170.98387 18069 ft 395 kts 209°
2026-04-30 13:17 6.40038 170.96984 18409 ft 397 kts 209°
2026-04-30 13:17 6.35240 170.94170 19141 ft 401 kts 210°
2026-04-30 13:18 6.32819 170.92747 19408 ft 405 kts 209°
2026-04-30 13:18 6.27919 170.89868 20128 ft 408 kts 209°
2026-04-30 13:18 6.25457 170.88423 20481 ft 410 kts 210°
2026-04-30 13:19 6.23020 170.86991 20775 ft 414 kts 210°
2026-04-30 13:19 6.20523 170.85525 21080 ft 417 kts 209°
2026-04-30 13:19 6.18006 170.84048 21482 ft 418 kts 210°
2026-04-30 13:19 6.15494 170.82574 21854 ft 419 kts 210°
2026-04-30 13:20 6.12961 170.81086 22153 ft 423 kts 210°
2026-04-30 13:20 6.10400 170.79583 22477 ft 426 kts 210°
2026-04-30 13:20 6.07829 170.78074 22786 ft 429 kts 210°
2026-04-30 13:20 6.05255 170.76564 23211 ft 429 kts 210°
2026-04-30 13:21 6.02671 170.75048 23547 ft 431 kts 210°
2026-04-30 13:21 6.00094 170.73535 23800 ft 435 kts 210°
2026-04-30 13:21 5.97479 170.72001 24135 ft 435 kts 210°
2026-04-30 13:22 5.92230 170.68922 24802 ft 438 kts 210°
2026-04-30 13:22 5.89589 170.67374 25046 ft 441 kts 209°
2026-04-30 13:22 5.84291 170.64269 25707 ft 443 kts 209°
2026-04-30 13:23 5.81622 170.62704 25965 ft 446 kts 210°
2026-04-30 13:23 5.76219 170.59538 26555 ft 449 kts 209°
2026-04-30 13:24 5.70839 170.56386 27137 ft 453 kts 210°
2026-04-30 13:24 5.65357 170.53174 27717 ft 456 kts 209°
2026-04-30 13:25 5.59888 170.49971 28276 ft 460 kts 209°
2026-04-30 13:25 5.54332 170.46719 28859 ft 463 kts 209°
2026-04-30 13:26 5.45917 170.41792 29667 ft 469 kts 209°
2026-04-30 13:26 5.40257 170.38479 30178 ft 472 kts 209°
2026-04-30 13:27 5.34596 170.35168 30710 ft 474 kts 209°
2026-04-30 13:28 5.25985 170.30130 31518 ft 479 kts 209°
2026-04-30 13:28 5.20198 170.26745 32008 ft 482 kts 209°
2026-04-30 13:28 5.17295 170.25047 32258 ft 483 kts 209°
2026-04-30 13:29 5.11495 170.21657 32652 ft 486 kts 209°
2026-04-30 13:29 5.05633 170.18231 32973 ft 488 kts 209°
2026-04-30 13:30 4.96846 170.13095 33439 ft 488 kts 209°
2026-04-30 13:31 4.90967 170.09660 33748 ft 487 kts 208°
2026-04-30 13:31 4.82190 170.04536 34101 ft 488 kts 209°
2026-04-30 13:32 4.76327 170.01113 34338 ft 488 kts 209°
2026-04-30 13:32 4.70471 169.97693 34616 ft 486 kts 209°
2026-04-30 13:33 4.64652 169.94298 34864 ft 486 kts 209°
2026-04-30 13:33 4.58810 169.90890 35135 ft 485 kts 209°
2026-04-30 13:34 4.55891 169.89187 35271 ft 485 kts 209°
2026-04-30 13:34 4.47144 169.84085 35651 ft 485 kts 209°
2026-04-30 13:35 4.44224 169.82380 35789 ft 485 kts 209°
2026-04-30 13:35 4.38425 169.78999 36087 ft 484 kts 209°
2026-04-30 13:36 4.32616 169.75610 36419 ft 483 kts 209°
2026-04-30 13:36 4.29697 169.73911 36569 ft 482 kts 209°
2026-04-30 13:36 4.23941 169.70554 36897 ft 481 kts 209°
2026-04-30 13:37 4.21048 169.68870 37051 ft 481 kts 209°
2026-04-30 13:37 4.15259 169.65494 37369 ft 480 kts 209°
2026-04-30 13:38 4.09487 169.62133 37663 ft 479 kts 209°
2026-04-30 13:38 4.06598 169.60449 37823 ft 479 kts 209°
2026-04-30 13:39 3.95123 169.53766 37844 ft 478 kts 209°
2026-04-30 13:40 3.86500 169.48745 37847 ft 478 kts 209°
2026-04-30 13:40 3.80746 169.45395 37847 ft 478 kts 208°
2026-04-30 13:41 3.74993 169.42047 37849 ft 478 kts 208°
2026-04-30 13:41 3.69274 169.38716 37846 ft 474 kts 208°
2026-04-30 13:42 3.63576 169.35403 37846 ft 475 kts 208°
2026-04-30 13:42 3.54989 169.30408 37846 ft 476 kts 208°
2026-04-30 13:43 3.49275 169.27084 37840 ft 476 kts 209°
2026-04-30 13:43 3.43658 169.23557 37852 ft 478 kts 212°
2026-04-30 13:44 3.38073 169.19948 37843 ft 476 kts 211°
2026-04-30 13:44 3.32505 169.16398 37843 ft 474 kts 211°
2026-04-30 13:45 3.24177 169.11113 37847 ft 475 kts 211°
2026-04-30 13:46 3.18593 169.07567 37841 ft 474 kts 211°
2026-04-30 13:46 3.13017 169.04032 37829 ft 474 kts 211°
2026-04-30 13:47 3.07445 169.00497 37834 ft 473 kts 211°
2026-04-30 13:47 3.01883 168.96966 37833 ft 473 kts 211°
2026-04-30 13:48 2.96346 168.93459 37826 ft 474 kts 211°
2026-04-30 13:48 2.90756 168.89913 37830 ft 475 kts 211°
2026-04-30 13:49 2.85180 168.86375 37834 ft 475 kts 211°
2026-04-30 13:49 2.79621 168.82852 37835 ft 475 kts 211°
2026-04-30 13:50 2.74033 168.79308 37837 ft 476 kts 211°
2026-04-30 13:50 2.65626 168.73981 37835 ft 476 kts 211°
2026-04-30 13:51 2.60024 168.70428 37844 ft 476 kts 211°
2026-04-30 13:51 2.54466 168.66906 37842 ft 476 kts 211°
2026-04-30 13:52 2.48874 168.63364 37842 ft 476 kts 211°
2026-04-30 13:52 2.43287 168.59823 37841 ft 475 kts 211°
2026-04-30 13:53 2.37695 168.56281 37848 ft 475 kts 211°
2026-04-30 13:53 2.32118 168.52750 37841 ft 475 kts 211°
2026-04-30 13:54 2.26510 168.49197 37844 ft 475 kts 211°
2026-04-30 13:54 2.20939 168.45669 37838 ft 476 kts 211°
2026-04-30 13:55 2.15327 168.42115 37840 ft 477 kts 211°
2026-04-30 13:55 2.09716 168.38562 37846 ft 477 kts 211°
2026-04-30 13:56 2.04141 168.35030 37762 ft 478 kts 211°
2026-04-30 13:56 2.01331 168.33253 37503 ft 478 kts 211°
2026-04-30 13:56 1.98520 168.31474 37238 ft 478 kts 211°
2026-04-30 13:57 1.95703 168.29690 36993 ft 479 kts 211°
2026-04-30 13:57 1.92881 168.27906 36750 ft 481 kts 211°
2026-04-30 13:57 1.90049 168.26111 36495 ft 482 kts 211°
2026-04-30 13:57 1.87210 168.24314 36255 ft 483 kts 211°
2026-04-30 13:58 1.84397 168.22535 36020 ft 484 kts 211°
2026-04-30 13:58 1.78688 168.18920 35545 ft 486 kts 211°
2026-04-30 13:58 1.75816 168.17104 35306 ft 487 kts 211°
2026-04-30 13:59 1.72947 168.15287 35074 ft 488 kts 211°
2026-04-30 13:59 1.70069 168.13466 34844 ft 489 kts 211°
2026-04-30 13:59 1.67229 168.11669 34619 ft 490 kts 211°
2026-04-30 13:59 1.64343 168.09842 34391 ft 491 kts 211°
2026-04-30 14:00 1.61444 168.08009 34158 ft 492 kts 211°
2026-04-30 14:00 1.55639 168.04335 33709 ft 495 kts 211°
2026-04-30 14:00 1.52727 168.02493 33444 ft 494 kts 211°
2026-04-30 14:01 1.49810 168.00646 33192 ft 496 kts 211°
2026-04-30 14:01 1.46930 167.98825 32949 ft 495 kts 211°
2026-04-30 14:01 1.44028 167.96988 32702 ft 495 kts 211°
2026-04-30 14:01 1.41109 167.95141 32449 ft 496 kts 211°
2026-04-30 14:02 1.38177 167.93287 32200 ft 496 kts 211°
2026-04-30 14:02 1.35249 167.91434 31983 ft 498 kts 211°
2026-04-30 14:02 1.32319 167.89581 31739 ft 499 kts 211°
2026-04-30 14:02 1.29383 167.87724 31495 ft 498 kts 211°
2026-04-30 14:03 1.26492 167.85895 31276 ft 498 kts 211°
2026-04-30 14:03 1.23560 167.84041 31035 ft 495 kts 211°
2026-04-30 14:03 1.20651 167.82201 30805 ft 494 kts 211°
2026-04-30 14:03 1.18732 167.80986 30666 ft 493 kts 211°
2026-04-30 14:04 1.15829 167.79150 30428 ft 492 kts 211°
2026-04-30 14:04 1.12944 167.77326 30200 ft 490 kts 211°
2026-04-30 14:04 1.10067 167.75506 29976 ft 488 kts 211°
2026-04-30 14:04 1.06269 167.73104 29635 ft 486 kts 211°
2026-04-30 14:05 1.04332 167.71879 29450 ft 485 kts 211°
2026-04-30 14:05 1.01522 167.70102 29185 ft 483 kts 211°
2026-04-30 14:05 0.98679 167.68304 28937 ft 481 kts 211°
2026-04-30 14:05 0.95856 167.66519 28690 ft 479 kts 211°
2026-04-30 14:06 0.93041 167.64739 28428 ft 478 kts 212°
2026-04-30 14:06 0.87441 167.61197 27928 ft 475 kts 212°
2026-04-30 14:07 0.81908 167.57699 27435 ft 471 kts 211°
2026-04-30 14:07 0.79141 167.55949 27193 ft 470 kts 212°
2026-04-30 14:07 0.76378 167.54202 26953 ft 468 kts 212°
2026-04-30 14:08 0.70890 167.50732 26474 ft 465 kts 212°
2026-04-30 14:08 0.68155 167.49003 26238 ft 463 kts 212°
2026-04-30 14:08 0.62720 167.45566 25657 ft 461 kts 212°
2026-04-30 14:09 0.60032 167.43867 24953 ft 464 kts 212°
2026-04-30 14:09 0.57296 167.42137 24296 ft 464 kts 212°
2026-04-30 14:09 0.51857 167.38698 22921 ft 459 kts 212°
2026-04-30 14:10 0.49174 167.37001 22285 ft 453 kts 212°
2026-04-30 14:10 0.46525 167.35325 21638 ft 448 kts 212°
2026-04-30 14:10 0.43900 167.33665 20990 ft 443 kts 212°
2026-04-30 14:10 0.41305 167.32024 20313 ft 439 kts 212°
2026-04-30 14:11 0.38770 167.30422 19657 ft 435 kts 212°
2026-04-30 14:11 0.36226 167.28813 19031 ft 430 kts 212°
2026-04-30 14:11 0.33707 167.27221 18404 ft 425 kts 212°
2026-04-30 14:11 0.31211 167.25643 17747 ft 421 kts 212°
2026-04-30 14:12 0.28751 167.24086 17119 ft 414 kts 211°
2026-04-30 14:12 0.26366 167.22578 16512 ft 408 kts 211°
2026-04-30 14:12 0.23985 167.21073 15900 ft 402 kts 211°
2026-04-30 14:12 0.21637 167.19588 15294 ft 396 kts 211°
2026-04-30 14:13 0.19322 167.18125 14678 ft 391 kts 211°
2026-04-30 14:13 0.17030 167.16675 14084 ft 386 kts 211°
2026-04-30 14:13 0.14767 167.15244 13478 ft 382 kts 211°
2026-04-30 14:13 0.12542 167.13838 12881 ft 376 kts 211°
2026-04-30 14:14 0.10344 167.12449 12320 ft 370 kts 211°
2026-04-30 14:14 0.08187 167.11086 11826 ft 362 kts 211°
2026-04-30 14:14 0.06071 167.09749 11297 ft 356 kts 211°
2026-04-30 14:14 0.04018 167.08451 10720 ft 352 kts 211°
2026-04-30 14:15 0.01961 167.07151 10372 ft 342 kts 211°
2026-04-30 14:15 -0.00001 167.05909 10192 ft 324 kts 211°
2026-04-30 14:15 -0.01863 167.04731 9943 ft 312 kts 211°
2026-04-30 14:15 -0.03686 167.03578 9505 ft 305 kts 211°
2026-04-30 14:16 -0.05449 167.02464 9350 ft 300 kts 211°
2026-04-30 14:16 -0.07231 167.01338 9215 ft 303 kts 211°
2026-04-30 14:16 -0.09012 167.00213 9089 ft 301 kts 211°
2026-04-30 14:16 -0.10782 166.99094 8710 ft 302 kts 211°
2026-04-30 14:17 -0.12540 166.97983 8347 ft 296 kts 211°
2026-04-30 14:17 -0.14234 166.96911 7979 ft 288 kts 211°
2026-04-30 14:17 -0.15900 166.95858 7635 ft 279 kts 211°
2026-04-30 14:17 -0.17517 166.94835 7276 ft 271 kts 211°
2026-04-30 14:18 -0.19089 166.93840 6939 ft 266 kts 211°
2026-04-30 14:18 -0.20748 166.92794 6632 ft 296 kts 211°
2026-04-30 14:18 -0.24230 166.90594 6398 ft 292 kts 211°
2026-04-30 14:19 -0.27575 166.88477 5419 ft 287 kts 211°
2026-04-30 14:19 -0.29311 166.87379 4800 ft 285 kts 211°
2026-04-30 14:19 -0.30976 166.86327 4258 ft 282 kts 211°
2026-04-30 14:20 -0.32601 166.85299 3931 ft 270 kts 211°
2026-04-30 14:20 -0.34153 166.84318 3677 ft 254 kts 211°
2026-04-30 14:20 -0.36879 166.82590 3361 ft 217 kts 211°
2026-04-30 14:21 -0.38089 166.81819 3183 ft 198 kts 211°
2026-04-30 14:21 -0.39237 166.81089 2767 ft 194 kts 211°
2026-04-30 14:21 -0.41309 166.79779 2514 ft 159 kts 210°
2026-04-30 14:22 -0.42273 166.79308 2348 ft 152 kts 193°
2026-04-30 14:22 -0.44250 166.79618 2324 ft 143 kts 143°
2026-04-30 14:22 -0.44981 166.80317 2381 ft 150 kts 124°
2026-04-30 14:23 -0.46171 166.81950 2345 ft 143 kts 125°
2026-04-30 14:23 -0.47469 166.83504 2321 ft 145 kts 129°
2026-04-30 14:24 -0.48830 166.85026 2329 ft 147 kts 130°
2026-04-30 14:24 -0.49511 166.85783 2330 ft 148 kts 130°
2026-04-30 14:25 -0.50919 166.87372 1678 ft 161 kts 129°
2026-04-30 14:25 -0.52374 166.89054 809 ft 157 kts 126°
2026-04-30 14:26 -0.53667 166.90667 257 ft 143 kts 128°
2026-04-30 14:26 -0.54328 166.91438 34 ft 139 kts 131°
2026-04-30 14:26 -0.55021 166.92219 32 ft 53 kts 137°
2026-04-30 14:27 -0.55256 166.92470 28 ft 35 kts 131°
2026-04-30 14:27 -0.55364 166.92604 27 ft 23 kts 121°
2026-04-30 14:27 -0.55329 166.92689 29 ft 8 kts
2026-04-30 14:28 -0.55192 166.92421 29 ft 28 kts 308°
2026-04-30 14:28 -0.55072 166.92270 30 ft 27 kts 308°
2026-04-30 14:28 -0.54960 166.92132 33 ft 25 kts 313°
2026-04-30 14:28 -0.54842 166.91994 33 ft 27 kts 311°
2026-04-30 14:29 -0.54570 166.91680 30 ft 31 kts 310°
2026-04-30 14:29 -0.54328 166.91453 30 ft 24 kts 360°
2026-04-30 14:30 -0.53855 166.91608 2066 ft 256 kts 19°